Hourly Data Report for January 05, 2003

SHERBROOKE A
QUEBEC

45°26'00.000" N
71°41'00.000" W
241.40 m
7028124
71610
YSC

Download Data

Hourly Data (January 2003)
Hourly Data Report for January 5, 2003
TIME
LST
Temp Definition
°C
Dew Point Definition
°C
Rel Hum Definition
%
Precip. Amount Definition
mm

Wind Dir Definition
10's deg

Wind Spd Definition
km/h
Visibility Definition
km
Stn Press Definition
kPa
Hmdx Definition


Wind Chill Definition


Weather Definition


00:00 -6.1 -9.4 77   1 7 4.8 98.39   -9 Snow
01:00 -6.6 -9.6 79   3 9 9.7 98.43   -11  
02:00 -6.9 -9.8 80   2 6 15.0 98.48   -10  
03:00 -7.6 -10.5 80     0 15.0 98.53      
04:00 -12.8 -15.0 84     0 15.0 98.60      
05:00 -10.1 -12.3 84   23 4 15.0 98.69   -12  
06:00 -9.4 -11.6 84     0 15.0 98.73      
07:00 -9.2 -11.6 83   10 6 15.0 98.78   -13  
08:00 -8.9 -11.4 82   9 7 24.1 98.85   -13 Cloudy
09:00 -7.9 -10.8 80     0 24.1 98.89     Cloudy
10:00 -6.4 -10.1 75     0 24.1 98.94     Mostly Cloudy
11:00 -5.4 -10.3 68   6 6 24.1 98.88   -8 Mostly Cloudy
12:00 -4.8 -9.8 68   6 6 24.1 98.81   -8 Mostly Cloudy
13:00 -3.5 -8.2 70   23 4 24.1 98.76   -5 Mostly Cloudy
14:00 -3.9 -8.9 68   36 4 24.1 98.73   -6 Mostly Cloudy
15:00 -3.6 -8.4 69   28 6 24.1 98.76   -6 Mostly Cloudy
16:00 -4.5 -8.7 72   27 6 24.1 98.77   -7 Mostly Cloudy
17:00 -4.8 -8.5 75   27 4 24.1 98.78   -7 Mostly Cloudy
18:00 -4.9 -8.0 79     0 15.0 98.78      
19:00 -4.8 -8.0 78     0 15.0 98.81      
20:00 -4.9 -7.8 80   19 4 15.0 98.79   -7  
21:00 -5.0 -7.7 81   21 4 15.0 98.75   -7  
22:00 -4.9 -8.1 78   22 6 15.0 98.75   -8  
23:00 -5.1 -8.1 79     0 15.0 98.69     Snow

Notes on Data Quality.

Legend

  • E = Estimated
  • M = Missing
  • NA = Not Available*
  • [empty] = Indicates an unobserved value
Date modified: